Regional Weather Roundup
Issued by NWS

Home | Current Version | Previous Version | Graphics & Text | Print | Product List | Glossary On
Versions: 1 2 3 4 5 6 7 8 9 10 11 12 13 14 15 16 17 18 19 20 21 22 23 24 25 26 27 28 29 30 31 32 33 34 35 36 37 38 39 40 41 42 43 44 45 46 47 48
000
ASUS45 KPSR 271610
RWRAZ

ARIZONA HOURLY REGIONAL WEATHER ROUNDUP
NATIONAL WEATHER SERVICE PHOENIX AZ
900 AM MST SAT MAY 27 2017

NOTE: FAIR INDICATES FEW OR NO CLOUDS BELOW 12,000 FEET WITH NO
SIGNIFICANT WEATHER AND/OR OBSTRUCTIONS TO VISIBILITY.

AZZ001>003-036-271700-
NORTHWEST ARIZONA

CITY           SKY/WX    TMP DP  RH WIND       PRES   REMARKS
BULLHEAD CITY  SUNNY     81  41  24 S6        29.93R
KINGMAN        SUNNY     74  35  24 W6        30.04R
$$

AZZ004>008-015-016-018-271700-
NORTH CENTRAL ARIZONA

CITY           SKY/WX    TMP DP  RH WIND       PRES   REMARKS
GRAND CANYON   SUNNY     62  27  26 W8        30.20R
WILLIAMS       SUNNY     64  27  24 SW10      30.20R
PRESCOTT       SUNNY     68  30  24 SE8       30.13R
FLAGSTAFF      SUNNY     60  28  29 SW5       30.21R
PAYSON         SUNNY     68  28  22 VRB3      30.17R
PAGE           SUNNY     68  33  27 CALM      30.08S
$$

AZZ009>014-017-271700-
NORTHEAST ARIZONA

CITY           SKY/WX    TMP DP  RH WIND       PRES   REMARKS
WINSLOW        SUNNY     72  28  19 VRB5      30.11S
SAINT JOHNS    SUNNY     68  24  19 W12G21    30.15R
WINDOW ROCK    SUNNY     66  23  19 W12       30.17S
SHOW LOW       SUNNY     63  19  19 SW12      30.21R
$$

AZZ540-542>544-546-548-271700-
GREATER PHOENIX AREA

CITY           SKY/WX    TMP DP  RH WIND       PRES   REMARKS
PHOENIX        MOSUNNY   80  25  13 CALM      29.94R
BUCKEYE        SUNNY     79  32  18 CALM      29.96R
GLENDALE       SUNNY     81  32  17 CALM        N/A
LUKE AFB       SUNNY     79  31  17 CALM      29.95R
DEER VALLEY    SUNNY     80  21  11 SE9       29.97R
SCOTTSDALE     SUNNY     80  22  11 VRB5      29.98R
MESA-FALCON    SUNNY    N/A N/A N/A SE6       29.97R
CHANDLER       SUNNY     79  25  13 E5        29.96R
$$

AZZ539-553-271700-
SOUTHWEST MARICOPA COUNTY AND PINAL COUNTY

CITY           SKY/WX    TMP DP  RH WIND       PRES   REMARKS
CASA GRANDE    SUNNY     78  28  16 E5        29.98R
GILA BEND      FAIR      82  22  11 CALM      29.93R
$$

AZZ503-504-507>509-271700-
SOUTHEAST ARIZONA

CITY           SKY/WX    TMP DP  RH WIND       PRES   REMARKS
TUCSON         SUNNY     80  28  15 CALM      30.04R
DAVIS-MONTHAN  SUNNY     80  27  14 SE5       30.03R
RYAN FIELD     SUNNY     81  30  16 E5        30.02S
NOGALES        SUNNY     78  24  13 E5        30.08S
SIERRA VISTA   SUNNY     75  21  13 SE6       30.13S
DOUGLAS        SUNNY     78  32  18 MISG      30.10S
SAFFORD        SUNNY     76  20  12 VRB3      30.04S
$$

AZZ532-271700-
SOUTHWEST ARIZONA

CITY           SKY/WX    TMP DP  RH WIND       PRES   REMARKS
YUMA           SUNNY     77  50  38 S7        29.92R
$$

CAZ041-043-047-048-061-525>527-560>570-271700-
SOUTHERN CALIFORNIA

CITY           SKY/WX    TMP DP  RH WIND       PRES   REMARKS
DOWNTOWN L.A.  CLOUDY    65  52  62 W3        30.06R
L.A. AIRPORT   PTSUNNY   62  54  74 W8        30.07R
SAN DIEGO      PTSUNNY   66  51  58 CALM      30.07R
BURBANK        SUNNY     63  49  60 CALM      30.05R
ONTARIO        PTSUNNY   61  50  67 W5        30.06R
RIVERSIDE      CLOUDY    61  52  72 CALM      30.06R
PALM SPRINGS   SUNNY     75  46  35 VRB5      29.94R
EL CENTRO NAS  SUNNY     74  46  36 NE7       29.93R
IMPERIAL       SUNNY     76  51  41 N7        29.90R
BLYTHE         SUNNY     79  43  27 W6        29.92R
NEEDLES        SUNNY     84  41  21 NE5       29.93R
$$

NVZ020-UTZ003-271700-
SOUTHERN NEVADA-UTAH

CITY           SKY/WX    TMP DP  RH WIND       PRES   REMARKS
LAS VEGAS      SUNNY     80  28  15 NE16      29.98R
SALT LAKE CITY MOSUNNY   58  38  47 NW7       30.21R
$$

NMZ009-TXZ055-271700-
NEW MEXICO-WEST TEXAS

CITY           SKY/WX    TMP DP  RH WIND       PRES   REMARKS
ALBUQUERQUE    MOSUNNY   69  17  13 SW10      30.10F
EL PASO        SUNNY     81  35  19 W14G24    30.06S
$$


........................KEY........................
SKY/WX - SKY CONDITION/WEATHER
TMP    - TEMPERATURE IN FAHRENHEIT
DP     - DEW POINT IN FAHRENHEIT
RH     - RELATIVE HUMIDITY IN PERCENT
WIND   - DIRECTION AND SPEED IN MILES PER HOUR (MPH)
VRB    - VARIABLE WIND DIRECTION
PRES   - MEAN SEA LEVEL PRESSURE IN INCHES OF MERCURY
         F - FALLING PRESSURE   R - RISING PRESSURE
         S - STEADY PRESSURE
VSB    - VISIBILITY IN MILES
HX     - HEAT INDEX IN FAHRENHEIT
WCI    - WIND CHILL INDEX IN FAHRENHEIT
TC     - TEMPERATURE IN CELSIUS WHICH IS ALSO KNOWN AS
         TEMPERATURE IN CENTIGRADE
AFB    - AIR FORCE BASE
         LUKE AFB IS LUKE AIR FORCE BASE
         DAVIS-MONTHAN IS DAVIS-MONTHAN AIR FORCE BASE
NAS    - NAVAL AIR STATION
         EL CENTRO NAS IS EL CENTRO NAVAL AIR STATION
N/A    - NOT AVAILABLE





USA.gov is the U.S. government's official web portal to all federal, state and local government web resources and services.